Date String (YYYY-MM-DD hh:mm:ss) UTC,Instrument flags,Ambient pressure (hPa),Sample flow (lpm),Bypass flow (lpm),Sample temperature (°C),Ambient temperature (°C),ASC tube jacket temperature (°C),LED temperature (°C),Box temperature (°C),Sample RH (%),Span deviation,Mass concentration (μg/m³),Mass concentration (μg/m³),Mass concentration (μg/m³)
DateTimeUTC,F1_M11,P_M11,Q1_M11,Q2_M11,T1_M11,T2_M11,T3_M11,T4_M11,T5_M11,U1_M11,ZSPAN_M11,X0_M11,X2_M11,X1_M11
2022-05-05 12:00:00,,0825.4,5.02,0.00,24.7,23.7,00.0,33.6,26.5,20.8,0000.0,0007.97,0004.51,0003.96
2022-05-05 12:01:00,,0825.4,5.00,0.00,24.6,23.7,00.0,33.6,26.5,20.8,0000.0,0007.90,0004.48,0003.95
2022-05-05 12:02:00,,0825.4,5.00,0.00,24.6,23.7,00.0,33.6,26.4,20.8,0000.0,0007.92,0004.47,0003.93
2022-05-05 12:03:00,,0825.4,4.99,0.00,24.7,23.7,00.0,33.6,26.5,20.8,0000.0,0007.75,0004.46,0003.92
2022-05-05 12:04:00,,0825.4,5.01,0.00,24.6,23.7,00.0,33.6,26.5,20.7,0000.0,0007.60,0004.43,0003.89
2022-05-05 12:05:00,,0825.4,5.00,0.00,24.6,23.7,00.0,33.6,26.5,20.7,0000.0,0007.63,0004.41,0003.86
2022-05-05 12:06:00,,0825.4,5.01,0.00,24.6,23.7,00.0,33.6,26.4,20.7,0000.0,0007.96,0004.38,0003.84
2022-05-05 12:07:00,,0825.5,5.00,0.00,24.6,23.7,00.0,33.6,26.4,20.8,0000.0,0008.43,0004.34,0003.83
2022-05-05 12:08:00,,0825.5,5.00,0.00,24.6,23.7,00.0,33.6,26.4,20.9,0000.0,0008.31,0004.30,0003.83
2022-05-05 12:09:00,,0825.4,5.01,0.00,24.6,23.7,00.0,33.6,26.4,21.0,0000.0,0008.22,0004.28,0003.84
2022-05-05 12:10:00,,0825.5,5.00,0.00,24.6,23.7,00.0,33.6,26.3,21.0,0000.1,0008.21,0004.29,0003.84
2022-05-05 12:11:00,,0825.5,5.02,0.00,24.6,23.7,00.0,33.6,26.4,20.9,-000.9,0008.20,0004.30,0003.85
2022-05-05 12:12:00,,0825.5,4.99,0.00,24.6,23.7,00.0,33.6,26.4,20.9,-001.9,0008.29,0004.33,0003.86
2022-05-05 12:13:00,,0825.6,5.01,0.00,24.6,23.7,00.0,33.6,26.4,20.8,-000.5,0008.31,0004.33,0003.85
2022-05-05 12:14:00,,0825.6,4.99,0.00,24.6,23.7,00.0,33.6,26.4,20.8,0000.0,0008.27,0004.31,0003.84
2022-05-05 12:15:00,,0825.6,5.01,0.00,24.6,23.7,00.0,33.6,26.4,20.8,0000.0,0008.23,0004.30,0003.83
2022-05-05 12:16:00,,0825.6,5.00,0.00,24.6,23.7,00.0,33.6,26.4,20.8,0000.0,0008.19,0004.29,0003.84
2022-05-05 12:17:00,,0825.6,5.00,0.00,24.6,23.6,00.0,33.6,26.3,20.8,0000.0,0007.90,0004.32,0003.84
2022-05-05 12:18:00,,0825.7,5.00,0.00,24.6,23.6,00.0,33.5,26.3,20.8,0000.0,0007.40,0004.35,0003.85
2022-05-05 12:19:00,,0825.6,4.99,0.00,24.6,23.6,00.0,33.6,26.4,20.8,0000.0,0007.54,0004.39,0003.83
2022-05-05 12:20:00,,0825.7,5.01,0.00,24.6,23.6,00.0,33.6,26.4,20.8,0000.0,0007.62,0004.41,0003.81
2022-05-05 12:21:00,,0825.7,4.99,0.00,24.6,23.6,00.0,33.6,26.4,20.8,0000.0,0007.66,0004.42,0003.81
2022-05-05 12:22:00,,0825.7,5.00,0.00,24.6,23.6,00.0,33.5,26.4,20.7,0000.0,0007.56,0004.38,0003.80
2022-05-05 12:23:00,,0825.7,5.00,0.00,24.6,23.6,00.0,33.5,26.4,20.7,0000.0,0007.52,0004.36,0003.79
2022-05-05 12:24:00,,0825.7,5.00,0.00,24.6,23.6,00.0,33.5,26.4,20.7,0000.0,0007.59,0004.41,0003.81
2022-05-05 12:25:00,,0825.7,5.01,0.00,24.6,23.6,00.0,33.5,26.3,20.8,0000.0,0007.66,0004.44,0003.82
2022-05-05 12:26:00,,0825.7,4.99,0.00,24.6,23.6,00.0,33.5,26.3,20.8,0000.0,0007.72,0004.46,0003.83
2022-05-05 12:27:00,,0825.7,5.00,0.00,24.5,23.6,00.0,33.5,26.3,20.8,0000.0,0007.65,0004.45,0003.83
2022-05-05 12:28:00,,0825.7,5.00,0.00,24.6,23.6,00.0,33.5,26.3,20.8,0000.0,0007.54,0004.43,0003.84
2022-05-05 12:29:00,,0825.7,5.00,0.00,24.5,23.6,00.0,33.5,26.3,20.9,0000.0,0007.59,0004.45,0003.84
2022-05-05 12:30:00,,0825.7,5.01,0.00,24.5,23.6,00.0,33.5,26.3,20.9,0000.0,0007.54,0004.45,0003.85
2022-05-05 12:31:00,,0825.8,4.98,0.00,24.5,23.6,00.0,33.5,26.3,20.9,0000.2,0007.58,0004.46,0003.86
2022-05-05 12:32:00,,0825.8,5.02,0.00,24.5,23.6,00.0,33.5,26.3,20.9,0001.1,0007.55,0004.44,0003.85
2022-05-05 12:33:00,,0825.7,5.00,0.00,24.5,23.6,00.0,33.5,26.3,21.0,0000.7,0007.52,0004.43,0003.84
2022-05-05 12:34:00,,0825.7,5.00,0.00,24.5,23.6,00.0,33.5,26.3,20.9,0000.2,0007.57,0004.44,0003.86
2022-05-05 12:35:00,,0825.7,5.00,0.00,24.5,23.6,00.0,33.5,26.3,21.0,0000.0,0007.48,0004.40,0003.85
2022-05-05 12:36:00,,0825.7,4.99,0.00,24.5,23.6,00.0,33.5,26.3,21.0,0000.0,0007.38,0004.36,0003.84
2022-05-05 12:37:00,,0825.7,5.01,0.00,24.5,23.6,00.0,33.5,26.3,21.0,0000.0,0007.26,0004.33,0003.84
2022-05-05 12:38:00,,0825.6,4.99,0.00,24.5,23.6,00.0,33.5,26.3,21.0,0000.0,0007.32,0004.35,0003.84
2022-05-05 12:39:00,,0825.6,5.01,0.00,24.5,23.6,00.0,33.5,26.3,20.9,0000.0,0007.31,0004.35,0003.83
2022-05-05 12:40:00,,0825.6,4.99,0.00,24.5,23.6,00.0,33.5,26.3,20.9,0000.0,0007.05,0004.28,0003.81
2022-05-05 12:41:00,,0825.6,5.00,0.00,24.5,23.6,00.0,33.5,26.3,20.9,0000.0,0006.69,0004.19,0003.78
2022-05-05 12:42:00,,0825.6,4.99,0.00,24.5,23.6,00.0,33.5,26.3,20.9,0000.0,0006.71,0004.18,0003.76
2022-05-05 12:43:00,,0825.7,4.99,0.00,24.5,23.6,00.0,33.5,26.3,21.0,0000.0,0006.74,0004.17,0003.74
2022-05-05 12:44:00,,0825.7,5.00,0.00,24.5,23.6,00.0,33.5,26.3,21.1,0000.0,0006.92,0004.18,0003.72
2022-05-05 12:45:00,,0825.7,5.01,0.00,24.5,23.6,00.0,33.5,26.3,21.1,0000.0,0006.80,0004.14,0003.68
2022-05-05 12:46:00,,0825.7,4.99,0.00,24.5,23.6,00.0,33.5,26.3,21.0,0000.0,0006.82,0004.12,0003.65
2022-05-05 12:47:00,,0825.7,5.01,0.00,24.5,23.6,00.0,33.5,26.3,21.0,0000.0,0006.93,0004.13,0003.62
2022-05-05 12:48:00,,0825.7,5.00,0.00,24.5,23.6,00.0,33.5,26.3,21.0,0000.0,0006.90,0004.11,0003.59
2022-05-05 12:49:00,,0825.7,5.01,0.00,24.5,23.6,00.0,33.5,26.3,20.9,0000.0,0006.75,0004.06,0003.56
2022-05-05 12:50:00,,0825.7,5.00,0.00,24.5,23.6,00.0,33.5,26.3,20.9,0000.5,0006.75,0004.04,0003.55
2022-05-05 12:51:00,,0825.7,5.01,0.00,24.5,23.6,00.0,33.5,26.3,20.8,0000.7,0006.90,0004.06,0003.53
2022-05-05 12:52:00,,0825.7,4.99,0.00,24.5,23.6,00.0,33.5,26.3,20.8,0001.2,0007.11,0004.09,0003.51
2022-05-05 12:53:00,,0825.8,5.01,0.00,24.5,23.6,00.0,33.5,26.3,20.8,0000.2,0007.15,0004.08,0003.50
2022-05-05 12:54:00,,0825.8,5.00,0.00,24.5,23.6,00.0,33.5,26.3,20.8,-000.5,0006.97,0004.04,0003.48
2022-05-05 12:55:00,,0825.8,5.01,0.00,24.5,23.6,00.0,33.5,26.4,20.8,-000.6,0006.73,0004.00,0003.48
2022-05-05 12:56:00,,0825.9,5.00,0.00,24.5,23.6,00.0,33.5,26.3,20.8,-001.1,0006.65,0003.99,0003.48
2022-05-05 12:57:00,,0825.8,5.00,0.00,24.5,23.6,00.0,33.5,26.3,20.8,-001.4,0006.65,0003.98,0003.47
2022-05-05 12:58:00,,0825.9,5.00,0.00,24.5,23.6,00.0,33.4,26.3,20.8,-001.7,0006.68,0003.99,0003.46
2022-05-05 12:59:00,,0825.9,5.00,0.00,24.5,23.6,00.0,33.4,26.3,20.8,-001.7,0007.22,0004.01,0003.46
